Regional Weather Roundup
Issued by NWS

Home | Current Version | Previous Version | Graphics & Text | Print | Product List | Glossary On
Versions: 1 2 3 4 5 6 7 8 9 10 11 12 13 14 15 16 17 18 19 20 21 22 23 24 25 26 27 28 29 30 31 32 33 34 35 36 37 38 39 40 41 42 43 44 45 46 47 48 49 50
731
ASUS43 KLSX 250759
RWRMO

WEATHER SUMMARY FOR MISSOURI
NATIONAL WEATHER SERVICE SPRINGFIELD MO
300 AM CDT SUN JUN 25 2017

NOTE: "FAIR" INDICATES FEW OR NO CLOUDS BELOW 12,000 FEET WITH NO
       SIGNIFICANT WEATHER AND/OR OBSTRUCTIONS TO VISIBILITY.
       CURRENT SKY AND/OR WEATHER CONDITIONS ARE NOT AVAILABLE FOR
       CHILLICOTHE AND FARMINGTON.

MOZ001>031-035>038-043-044-053-054-250900-
...NORTHERN AND WESTERN MISSOURI...

CITY           SKY/WX    TMP DP  RH WIND       PRES   REMARKS
KANSAS CTY INT CLOUDY    61  50  67 SW7       30.21S
KANSAS C DTWN  CLOUDY    69  50  50 W6        30.20S
LEE`S SUMMIT   CLOUDY    67  51  56 SW7       30.22S
ST JOSEPH      PTCLDY    57  49  74 CALM      30.21R
CHILLICOTHE      N/A     57  50  77 CALM      30.20R
KIRKSVILLE     CLEAR     53  49  86 NW3       30.18R

$$
MOZ066>068-077>081-088>096-101>105-250900-
...SOUTHWEST MISSOURI...

CITY           SKY/WX    TMP DP  RH WIND       PRES   REMARKS
SPRINGFIELD    CLOUDY    61  56  83 S3        30.24S
JOPLIN         CLOUDY    64  61  90 CALM      30.25S
BRANSON        CLOUDY    59  54  82 CALM      30.26S

$$
MOZ032>034-039>042-045>050-055>058-069>072-250900-
...CENTRAL MISSOURI...

CITY           SKY/WX    TMP DP  RH WIND       PRES   REMARKS
COLUMBIA       CLEAR     58  50  75 SW8       30.19S
JEFFERSON CITY PTCLDY    61  51  70 CALM      30.19S
ROLLA          PTCLDY    54  49  83 SW9       30.20S
SEDALIA        MOCLDY    63  53  70 SW9       30.21S
WARRENSBURG    CLOUDY    63  50  63 SW7       30.21S
OSAGE BEACH    CLEAR     54  52  93 CALM      30.23R

$$
MOZ051-052-059>065-250900-
...EAST CENTRAL MISSOURI...

CITY           SKY/WX    TMP DP  RH WIND       PRES   REMARKS
ST LOUIS INTL  PTCLDY    65  47  52 SW8       30.16S
SPIRIT OF STL  CLEAR     55  52  89 W3        30.16S
ST CHARLES     PTCLDY    58  54  86 CALM      30.15S

$$
MOZ072>076-082>087-097>100-106>115-250900-
...SOUTH CENTRAL AND SOUTHEAST MISSOURI...

CITY           SKY/WX    TMP DP  RH WIND       PRES   REMARKS
CAPE GIRARDEAU CLEAR     57  56  96 SW5       30.19R
FARMINGTON     PTCLDY    53  51  93 CALM      30.21S
POPLAR BLUFF   PTCLDY    61  59  93 N3        30.19F
WEST PLAINS    CLOUDY    57  53  86 CALM      30.24F

$$




USA.gov is the U.S. government's official web portal to all federal, state and local government web resources and services.